Location: Bouilh
(43.3321°N, 0.2597°E)
Time: 13:42:59
(UTC+00:00)

Daily predictions for brighter satellites

Satellite Brightness Start Highest point End
(mag) Time Altitude Azimuth Time Altitude Azimuth Time Altitude Azimuth
ERS-1 Rocket 4.0 20:10:56 10° SE 20:15:16 30° ENE 20:19:37 10° N
Cosmos 1763 Rocket 3.6 20:13:15 10° NNW 20:18:31 85° WSW 20:23:41 10° SSE
Cosmos 1707 2.5 20:18:59 10° S 20:22:32 65° E 20:26:08 10° NNE
RESURS DK-1 3.9 20:19:57 10° N 20:23:18 24° NE 20:26:38 10° ESE
CSL-04 Rocket 4.3 20:18:42 10° S 20:23:52 55° W 20:29:08 10° NNW
Terra 2.9 20:22:19 10° SE 20:26:24 30° ENE 20:30:30 10° N
IRIDIUM 104 4.5 20:22:41 10° N 20:27:56 82° W 20:33:08 10° S
PSLV R/B 4.5 20:24:36 10° S 20:28:01 47° W 20:31:25 10° NNW
CZ-4C R/B 3.4 20:31:39 10° NNE 20:35:49 73° ESE 20:39:54 10° S
Cosmos 1980 Rocket 3.5 20:30:44 10° NW 20:35:56 38° WSW 20:41:04 10° S
ATLAS 2AS CENTAUR R/B 3.7 20:31:16 10° NNW 20:37:31 36° NE 20:43:34 10° ESE
Cosmos 2322 Rocket 3.1 20:32:45 10° N 20:38:00 36° ENE 20:42:59 11° ESE
BREEZE-M DEB (TANK) 2.9 20:35:37 10° SW 20:38:44 80° SSE 20:48:22 10° ENE
COSMOS 2406 4.3 20:34:16 10° SW 20:39:51 51° WNW 20:45:27 10° NNE
Cosmos 1674 3.9 20:38:11 10° SSW 20:41:27 39° WNW 20:44:43 10° N
ARGOS Delta rocket 3.6 20:38:05 10° SSE 20:42:32 76° ENE 20:46:56 10° N
Meteor 2-10 Rocket 4.3 20:38:08 10° N 20:43:20 39° ENE 20:47:42 13° SE
SL-4 R/B 4.2 20:44:58 10° WNW 20:48:09 25° N 20:51:30 10° NE
Cosmos 1733 Rocket 4.4 20:46:27 10° NNE 20:50:09 25° ENE 20:53:00 14° ESE
Cosmos 468 Rocket 4.3 20:45:43 10° NNW 20:50:54 66° WSW 20:56:00 10° S
Cosmos 2278 3.7 20:45:09 10° NNW 20:50:54 88° ENE 20:56:03 13° SSE
Cosmos 1553 Rocket 4.3 20:45:46 10° NNW 20:51:55 71° W 20:58:09 10° S
Ariane Rocket 3.5 20:48:54 13° SE 20:53:07 46° ENE 20:57:59 10° N
Timation 1 Rocket 4.3 20:48:40 10° SSW 20:54:33 66° ESE 21:00:27 10° NNE
SL-27 R/B 3.1 20:54:25 19° SE 20:55:18 23° ESE 20:57:36 10° NE
Cosmos 1300 3.7 20:52:12 10° NNE 20:55:20 28° ENE 20:57:21 17° SE
S3M 4.1 20:49:30 10° N 20:55:51 68° E 21:01:39 12° SSE
Okean-O 3.5 20:51:51 10° S 20:56:06 48° W 21:00:24 10° NNW
Cosmos 1400 Rocket 2.7 20:55:11 10° S 20:59:02 68° E 21:02:52 10° NNE
Meteor 1-13 Rocket 4.4 20:53:46 10° S 20:59:35 83° W 21:05:18 10° N
Cosmos 1441 Rocket 3.5 20:56:42 10° NNW 21:00:17 61° W 21:03:43 11° S
Cosmos 2219 Rocket 3.7 20:57:48 10° N 21:02:26 25° NE 21:06:53 11° ESE
Cosmos 1356 Rocket 4.0 20:59:27 15° SSE 21:02:30 39° E 21:06:26 10° NNE
Cosmos 2266 Rocket 4.0 20:57:42 10° S 21:04:01 81° E 21:10:27 10° N
BREEZE-M DEB (TANK) 3.3 21:02:10 10° NW 21:04:04 30° NNE 21:06:37 10° E
USA 245 3.2 21:02:18 17° SSE 21:04:53 79° ENE 21:09:13 10° N
ATLAS CENTAUR R/B 0.9 21:01:43 10° SSW 21:05:07 58° ESE 21:08:37 10° NE
Cosmos 1908 3.8 21:02:16 10° NNW 21:05:47 49° W 21:09:16 10° S
Cosmos 540 Rocket 4.4 21:01:45 10° NNW 21:06:36 43° WSW 21:11:24 10° S
Cosmos 1850 Rocket 4.0 21:01:52 10° S 21:07:00 61° ESE 21:12:09 10° NNE
Cosmos 2237 4.3 21:01:52 10° NNW 21:07:37 77° WSW 21:12:18 16° SSE
Cosmos 1655 Rocket 4.1 21:03:22 10° S 21:09:39 62° E 21:15:57 10° NNE
Meteor 1-4 Rocket 3.8 21:13:07 18° E 21:13:17 18° E 21:15:24 10° NE
Cosmos 2228 Rocket 3.3 21:09:51 15° S 21:13:28 57° E 21:17:58 10° NNE
Cosmos 1869 Rocket 3.9 21:09:58 10° NNW 21:14:24 66° W 21:18:19 13° S
MOS 1 Rocket 3.6 21:10:22 17° SSE 21:14:37 73° ENE 21:19:55 10° N
Okean O Rocket 4.2 21:12:34 10° SW 21:15:23 17° W 21:18:13 10° NW
Cosmos 1315 Rocket 4.3 21:17:29 19° ESE 21:18:30 21° E 21:21:30 10° NE
Cosmos 1953 4.1 21:17:02 10° NNE 21:19:31 16° ENE 21:20:51 14° E
Cosmos 968 Rocket 3.6 21:15:49 12° S 21:20:29 55° ESE 21:25:33 10° NNE
SPOT 3 Rocket 3.5 21:18:17 19° SSE 21:22:00 77° ENE 21:27:11 10° N
SeaSat 1 2.5 21:19:03 19° SSE 21:22:34 77° WSW 21:27:31 10° NNW
Cosmos 1741 Rocket 4.0 21:22:13 10° SSW 21:27:29 88° ESE 21:32:49 10° NNE
Cosmos 2360 Rocket 2.3 21:22:14 10° NNW 21:27:55 67° ENE 21:31:30 23° SE
SPOT 5 4.1 21:25:12 10° SSW 21:29:03 32° W 21:32:59 10° NNW
BlueWalker 3 3.5 21:31:50 18° E 21:31:50 18° E 21:33:19 10° ENE
MetOp-A 4.5 21:28:25 22° SE 21:31:29 50° ENE 21:36:34 10° N
Landsat 4 3.5 21:30:19 27° S 21:32:03 78° WSW 21:35:30 10° NNW
Cosmos 1814 Rocket 4.5 21:29:06 10° N 21:34:17 50° ENE 21:37:16 24° SE
COSMOS 2455 4.4 21:35:30 15° ESE 21:36:00 16° ESE 21:39:23 10° ENE
SL-16 R/B 2.8 21:34:18 10° NW 21:39:45 49° WSW 21:43:40 18° S
Landsat 5 3.4 21:38:02 10° NNE 21:42:04 67° ESE 21:44:11 27° S
SL-14 R/B 3.6 21:39:22 16° SSW 21:42:17 59° W 21:46:03 10° N
USA 234 3.6 21:35:48 10° NE 21:42:18 70° NW 21:48:47 10° WSW
Cosmos 2333 Rocket 2.2 21:38:03 10° NNW 21:43:51 82° ENE 21:47:09 27° SSE
Cosmos 1862 Rocket 3.5 21:42:41 22° S 21:45:30 89° W 21:49:57 10° N
Okean 3 3.3 21:46:08 29° S 21:48:12 79° E 21:52:23 10° N
Cosmos 1346 Rocket 2.8 21:45:38 10° NNW 21:49:29 69° W 21:51:09 31° S
Cosmos 2315 Rocket 4.3 21:47:06 10° NNW 21:53:25 66° W 21:58:04 19° S
ERS-1 Rocket 4.3 21:49:55 13° SSW 21:53:55 34° W 21:58:29 10° NNW
Cosmos 1455 2.9 21:51:20 10° N 21:54:32 32° ENE 21:55:03 31° E
Cosmos 1833 4.2 21:49:32 10° SSW 21:55:10 85° WNW 22:00:50 10° NNE
Atlas Centaur 2 4.0 21:49:44 10° WSW 21:56:16 26° SSW 21:58:33 23° S
CZ-4C R/B 3.6 21:58:28 15° E 21:58:28 15° E 22:00:21 10° ENE
H-2A R/B 4.4 21:58:41 15° E 22:00:15 18° ENE 22:03:12 10° NNE
RESURS DK-1 3.6 21:57:25 10° NW 22:01:03 32° WSW 22:02:41 23° SSW
Cosmos 1932 4.4 21:55:22 10° SSW 22:01:44 84° ESE 22:08:03 10° NE
Cosmos 2237 Rocket 4.4 21:59:09 10° N 22:02:34 16° NE 22:05:57 10° E
SJ 16-02 1.4 22:00:21 21° SSW 22:03:08 76° WNW 22:07:29 10° NNE
Terra 3.3 22:00:36 14° SSW 22:03:55 30° W 22:08:04 10° NW
GENESIS II 4.4 22:04:46 44° ESE 22:04:46 44° ESE 22:08:01 10° NE
Cosmos 2322 4.5 22:01:18 10° NNW 22:06:43 43° ENE 22:09:35 25° ESE
Meteor 1-16 Rocket 4.3 22:00:48 10° N 22:06:46 89° W 22:09:50 30° S
CZ-2C R/B 4.1 22:04:23 10° NNE 22:08:36 43° E 22:09:29 38° SE
Aureole 3 3.9 22:07:01 26° SSW 22:09:05 61° WNW 22:13:48 10° N
Cosmos 2333 4.2 22:06:57 10° NNW 22:12:44 78° WSW 22:15:22 34° SSE
Cosmos 2322 Rocket 3.3 22:16:51 10° NW 22:21:59 35° WSW 22:24:47 22° SSW
ARIANE 5 R/B 2.8 22:23:17 43° ESE 22:24:20 56° ENE 22:28:36 10° N
Cosmos 2297 Rocket 3.4 22:27:16 23° ESE 22:27:39 23° E 22:31:59 10° NE
SL-4 R/B 3.7 22:24:12 10° NW 22:27:45 30° NNE 22:31:30 10° ENE
ATLAS 2AS CENTAUR R/B 2.9 22:22:07 10° NW 22:28:43 57° WSW 22:31:35 33° S
Okean 1-7 3.5 22:30:05 32° SW 22:31:51 56° W 22:36:07 10° N
USA 281 3.2 22:34:22 34° SE 22:37:31 77° ENE 22:44:07 10° NNW
Cosmos 1745 Rocket 4.1 22:34:59 37° SSE 22:37:36 68° E 22:43:54 10° NNE
Cosmos 839 Rocket 4.1 22:32:25 10° NW 22:39:04 66° WSW 22:41:28 38° S
Cosmos 1908 Rocket 3.7 22:38:18 10° NNW 22:42:36 63° W 22:43:32 48° SSW
Spot 4 4.5 22:41:21 36° ESE 22:42:39 45° ENE 22:47:14 10° N
GP-B 3.0 22:38:27 10° N 22:42:53 84° W 22:43:50 54° SSW
ATLAS CENTAUR R/B 4.1 22:41:03 10° WNW 22:43:07 15° NW 22:45:13 10° N
Okean 2 4.5 22:43:48 27° WSW 22:45:17 38° WNW 22:49:03 10° N
Cosmos 1782 Rocket 3.5 22:41:12 10° N 22:45:31 70° E 22:46:09 59° SE
Cosmos 2219 Rocket 2.5 22:41:11 10° NNW 22:46:43 57° WSW 22:48:35 39° SSW
NOSS 8 (F) 4.4 22:47:50 84° SE 22:47:51 84° SE 22:51:09 10° NE
Nadezhda 1 Rocket 3.9 22:41:49 10° N 22:48:09 84° E 22:50:31 41° SSE
COSMOS 2428 2.8 22:43:13 10° NNW 22:48:55 73° ENE 22:50:54 42° SE
Cosmos 1386 Rocket 4.5 22:46:55 35° S 22:49:48 85° W 22:56:03 10° N
Cosmos 1315 Rocket 4.4 22:52:43 21° WSW 22:54:27 29° WNW 22:57:58 10° NNW
Cosmos 1953 3.3 22:51:58 10° NNW 22:55:27 34° W 22:55:58 32° WSW
H-2A R/B 4.1 22:56:57 10° NE 22:59:07 15° E 22:59:07 15° E
Cosmos 1242 Rocket 3.9 23:00:40 25° WNW 23:00:40 25° WNW 23:02:39 10° NNW
PSLV R/B 4.0 22:57:11 10° N 23:01:09 67° WNW 23:01:43 58° WSW
Cosmos 1300 Rocket 3.3 22:58:22 10° N 23:02:42 89° E 23:03:09 71° SSE
Cosmos 304 Rocket 4.0 23:03:17 49° ESE 23:03:33 50° ESE 23:08:10 10° NNE
Cosmos 1570 Rocket 4.1 22:58:30 10° NNW 23:03:49 67° WSW 23:05:08 49° SSW
BlueWalker 3 2.6 23:06:00 22° W 23:08:11 51° NNW 23:11:52 10° NE
Cosmos 158 Rocket 3.9 23:03:45 10° NNW 23:09:04 86° WSW 23:10:13 56° SSE
Cosmos 2360 Rocket 4.0 23:07:34 10° WNW 23:11:16 18° W 23:13:15 15° SW
Cosmos 405 Rocket 3.9 23:08:45 10° N 23:12:06 31° ENE 23:12:06 31° ENE
ALOS 2 2.7 23:14:27 59° ESE 23:14:58 65° ENE 23:19:20 10° N
Okean 2 Rocket 4.4 23:13:24 10° NNE 23:17:19 29° ENE 23:18:04 28° E
Cosmos 1378 Rocket 4.3 23:20:47 37° E 23:20:49 37° E 23:24:51 10° NNE
COSMOS 2455 2.8 23:18:35 37° SSW 23:21:06 85° WNW 23:27:11 10° NNE
CENTAUR R/B 3.3 23:24:42 29° ESE 23:24:56 29° ESE 23:30:24 10° NE
Cosmos 1408 3.8 23:27:13 30° NW 23:27:13 30° NW 23:29:17 10° N
Cosmos 2333 Rocket 4.3 23:24:18 10° WNW 23:27:20 15° W 23:29:09 13° WSW
NOSS 0 Rocket 3.9 23:21:29 10° NNW 23:27:45 85° WSW 23:29:40 48° SSE
Cosmos 1455 4.4 23:26:47 10° NW 23:28:38 14° W 23:28:46 14° W
Spot 2 4.4 23:28:59 60° SSE 23:29:57 89° WSW 23:35:02 10° NNW
Cosmos 773 Rocket 3.9 23:25:48 10° NNW 23:30:59 80° ENE 23:32:01 57° SE
Cosmos 1703 3.4 23:34:51 61° NW 23:34:51 61° NW 23:38:15 10° N
H-2A R/B 3.1 23:34:40 44° WSW 23:34:50 44° W 23:38:57 10° NNW
Cosmos 2221 Rocket 4.2 23:34:53 41° E 23:35:00 41° E 23:39:11 10° NNE
Cosmos 1892 3.8 23:37:30 32° ENE 23:37:30 32° ENE 23:40:00 10° NNE
Cosmos 1709 Rocket 4.3 23:34:37 38° SW 23:37:06 64° W 23:43:26 10° N
SL-16 R/B 4.0 23:35:45 10° N 23:40:29 26° NE 23:44:43 12° ESE
Cosmos 2242 Rocket 4.3 23:39:46 40° WSW 23:40:38 45° WNW 23:45:02 10° N
Sich 1 Rocket 3.9 23:38:43 10° N 23:43:01 52° ENE 23:43:22 51° E
Cosmos 1777 Rocket 3.9 23:43:34 59° SSW 23:44:36 87° ESE 23:49:56 10° NNE
Cosmos 1503 Rocket 4.0 23:43:28 52° SW 23:44:47 78° WNW 23:50:07 10° NNE
CZ-4C R/B 2.2 23:43:30 40° WSW 23:44:59 62° NW 23:50:28 10° NNE
Cosmos 2237 Rocket 2.1 23:41:49 10° NNW 23:47:31 84° ENE 23:48:59 52° SSE
BREEZE-M DEB (TANK) 4.0 23:38:50 10° WNW 23:48:10 47° N 23:51:17 10° ENE
Cosmos 2227 Rocket 2.3 23:50:16 51° SSE 23:51:12 58° ESE 23:56:46 10° NNE
Cosmos 2184 Rocket 4.3 23:50:14 42° SE 23:52:06 58° E 23:58:21 10° NNE
Meteor 1-24 Rocket 4.0 23:52:26 44° SW 23:54:11 64° WNW 23:59:49 10° N
